QPF
0.00 0.00 0.01 0.02 0.04 0.05 0.04 0.04 0.05 0.04 0.04 0.04 0.04 0.04 0.02 0.02 0.03 0.01 0.01 0.01 0.01 0.02 0.02 0.02 0.02 0.01 0.01 0.01 0.01 0.01 0.01 0.01 0.01 0.01 0.01 0.01 0.02 0.02 0.00 0.01 0.01 0.01 0.02
0.01 0.01 0.01 0.03 0.04 0.05 0.05 0.04 0.04 0.05 0.05 0.05 0.05 0.04 0.03 0.03 0.03 0.01 0.01 0.01 0.01 0.01 0.01 0.01 0.02 0.02 0.02 0.01 0.01 0.00 0.00 0.01 0.01 0.01 0.01 0.01 0.01 0.01 0.01 0.01 0.01 0.01 0.02
0.01 0.01 0.02 0.03 0.04 0.05 0.04 0.05 0.05 0.05 0.05 0.06 0.07 0.05 0.03 0.03 0.02 0.03 0.02 0.02 0.02 0.02 0.02 0.03 0.03 0.02 0.02 0.01 0.01 0.00 0.00 0.01 0.01 0.00 0.00 0.00 0.01 0.01 0.01 0.01 0.01 0.02 0.02
0.02 0.01 0.03 0.04 0.04 0.05 0.04 0.03 0.05 0.04 0.04 0.06 0.08 0.05 0.03 0.02 0.02 0.02 0.02 0.03 0.05 0.04 0.02 0.02 0.02 0.01 0.01 0.00 0.00 0.01 0.01 0.01 0.01 0.00 0.00 0.00 0.01 0.01 0.01 0.01 0.01 0.01 0.01
0.03 0.03 0.06 0.07 0.07 0.05 0.05 0.04 0.05 0.05 0.03 0.04 0.05 0.06 0.05 0.04 0.03 0.03 0.03 0.03 0.03 0.03 0.03 0.01 0.02 0.01 0.01 0.00 0.00 0.01 0.01 0.01 0.01 0.00 0.00 0.00 0.01 0.01 0.01 0.01 0.01 0.01 0.01
0.04 0.04 0.08 0.09 0.08 0.07 0.05 0.05 0.06 0.06 0.05 0.04 0.04 0.05 0.08 0.07 0.04 0.02 0.02 0.02 0.02 0.02 0.02 0.02 0.01 0.01 0.01 0.00 0.00 0.01 0.01 0.01 0.01 0.00 0.00 0.00 0.01 0.02 0.01 0.01 0.01 0.01 0.01
0.03 0.04 0.08 0.10 0.09 0.08 0.07 0.07 0.07 0.07 0.06 0.05 0.05 0.05 0.06 0.06 0.04 0.04 0.03 0.02 0.02 0.02 0.02 0.02 0.01 0.01 0.01 0.00 0.00 0.01 0.01 0.01 0.00 0.00 0.00 0.00 0.01 0.02 0.01 0.01 0.01 0.02 0.02
0.02 0.04 0.06 0.10 0.09 0.08 0.07 0.06 0.07 0.07 0.06 0.04 0.04 0.04 0.05 0.06 0.05 0.04 0.03 0.03 0.03 0.03 0.03 0.03 0.02 0.02 0.01 0.00 0.00 0.00 0.00 0.01 0.01 0.00 0.00 0.00 0.01 0.02 0.01 0.01 0.01 0.02 0.02
0.02 0.04 0.06 0.09 0.07 0.08 0.08 0.08 0.07 0.07 0.07 0.05 0.04 0.04 0.05 0.06 0.07 0.06 0.04 0.04 0.03 0.03 0.03 0.03 0.02 0.02 0.01 0.01 0.00 0.00 0.00 0.00 0.01 0.01 0.00 0.01 0.02 0.02 0.03 0.02 0.02 0.02 0.02
0.02 0.03 0.05 0.09 0.09 0.06 0.08 0.09 0.08 0.07 0.08 0.08 0.05 0.04 0.05 0.07 0.08 0.07 0.06 0.05 0.04 0.03 0.03 0.03 0.02 0.02 0.02 0.02 0.01 0.00 0.00 0.00 0.00 0.01 0.01 0.01 0.02 0.03 0.04 0.03 0.03 0.02 0.01
0.02 0.03 0.04 0.09 0.11 0.09 0.08 0.11 0.10 0.09 0.09 0.08 0.07 0.05 0.06 0.05 0.06 0.05 0.06 0.06 0.06 0.04 0.03 0.03 0.02 0.01 0.01 0.01 0.01 0.01 0.00 0.00 0.00 0.00 0.01 0.02 0.03 0.03 0.03 0.04 0.03 0.01 0.01
0.02 0.02 0.03 0.07 0.12 0.12 0.09 0.12 0.14 0.12 0.09 0.08 0.06 0.06 0.06 0.05 0.05 0.05 0.06 0.07 0.07 0.05 0.04 0.03 0.02 0.02 0.01 0.01 0.01 0.01 0.00 0.00 0.00 0.00 0.01 0.02 0.02 0.03 0.05 0.05 0.03 0.02 0.02
0.02 0.02 0.02 0.04 0.09 0.12 0.12 0.12 0.14 0.16 0.12 0.11 0.09 0.07 0.06 0.05 0.04 0.05 0.06 0.06 0.07 0.06 0.04 0.03 0.03 0.02 0.01 0.00 0.01 0.01 0.01 0.00 0.00 0.00 0.01 0.01 0.02 0.05 0.08 0.05 0.03 0.02 0.01
0.01 0.01 0.01 0.03 0.06 0.11 0.12 0.13 0.14 0.17 0.14 0.13 0.12 0.10 0.08 0.06 0.05 0.04 0.05 0.05 0.06 0.07 0.06 0.03 0.02 0.02 0.01 0.00 0.01 0.01 0.01 0.01 0.00 0.00 0.01 0.01 0.02 0.05 0.07 0.04 0.02 0.02 0.01
0.01 0.01 0.02 0.03 0.05 0.10 0.11 0.12 0.16 0.19 0.16 0.12 0.14 0.12 0.10 0.09 0.06 0.04 0.03 0.04 0.06 0.07 0.08 0.08 0.04 0.03 0.02 0.01 0.00 0.01 0.01 0.01 0.00 0.00 0.00 0.01 0.01 0.03 0.05 0.04 0.03 0.03 0.02
0.00 0.01 0.02 0.04 0.05 0.08 0.14 0.13 0.13 0.16 0.21 0.17 0.13 0.13 0.11 0.10 0.08 0.05 0.03 0.03 0.04 0.05 0.06 0.08 0.07 0.05 0.03 0.01 0.00 0.00 0.00 0.01 0.01 0.00 0.00 0.00 0.00 0.01 0.03 0.04 0.03 0.03 0.02
0.00 0.01 0.01 0.02 0.04 0.07 0.12 0.19 0.20 0.17 0.18 0.19 0.18 0.14 0.12 0.12 0.12 0.09 0.05 0.03 0.03 0.04 0.04 0.05 0.06 0.06 0.04 0.03 0.01 0.00 0.00 0.01 0.01 0.01 0.01 0.01 0.01 0.01 0.01 0.03 0.04 0.03 0.01
0.00 0.01 0.01 0.01 0.02 0.05 0.11 0.16 0.21 0.23 0.18 0.14 0.17 0.18 0.15 0.13 0.14 0.12 0.09 0.06 0.03 0.03 0.03 0.03 0.03 0.04 0.04 0.03 0.02 0.01 0.00 0.00 0.01 0.01 0.01 0.01 0.01 0.01 0.01 0.02 0.03 0.03 0.01
0.00 0.01 0.01 0.01 0.01 0.03 0.08 0.12 0.15 0.17 0.17 0.14 0.12 0.15 0.17 0.16 0.13 0.11 0.09 0.07 0.07 0.04 0.03 0.02 0.02 0.03 0.03 0.03 0.03 0.02 0.01 0.01 0.00 0.01 0.01 0.01 0.01 0.02 0.01 0.01 0.01 0.02 0.02
0.01 0.01 0.01 0.01 0.01 0.01 0.03 0.05 0.08 0.13 0.14 0.14 0.13 0.11 0.11 0.13 0.14 0.12 0.09 0.07 0.07 0.08 0.06 0.03 0.03 0.03 0.03 0.03 0.03 0.02 0.01 0.01 0.01 0.01 0.01 0.01 0.01 0.01 0.02 0.01 0.01 0.01 0.01
0.01 0.01 0.02 0.01 0.01 0.01 0.01 0.02 0.04 0.08 0.11 0.12 0.13 0.13 0.11 0.11 0.12 0.13 0.12 0.09 0.07 0.06 0.06 0.06 0.04 0.04 0.03 0.03 0.03 0.02 0.01 0.01 0.01 0.01 0.01 0.01 0.01 0.02 0.02 0.02 0.01 0.01 0.01
0.02 0.01 0.01 0.02 0.01 0.01 0.01 0.02 0.03 0.05 0.08 0.11 0.13 0.12 0.11 0.10 0.10 0.09 0.10 0.08 0.05 0.04 0.04 0.04 0.04 0.04 0.04 0.03 0.03 0.03 0.01 0.01 0.01 0.00 0.01 0.01 0.01 0.01 0.01 0.02 0.02 0.01 0.01
0.03 0.02 0.01 0.02 0.02 0.02 0.01 0.02 0.03 0.04 0.06 0.11 0.14 0.13 0.10 0.08 0.09 0.07 0.06 0.05 0.04 0.03 0.02 0.02 0.03 0.03 0.03 0.03 0.03 0.02 0.01 0.01 0.01 0.00 0.00 0.01 0.01 0.02 0.02 0.02 0.02 0.02 0.01
0.04 0.03 0.02 0.02 0.03 0.04 0.02 0.02 0.02 0.03 0.04 0.08 0.14 0.14 0.12 0.09 0.08 0.07 0.05 0.04 0.02 0.02 0.02 0.01 0.01 0.02 0.03 0.03 0.02 0.02 0.01 0.01 0.01 0.00 0.00 0.01 0.01 0.02 0.02 0.02 0.02 0.02 0.02
0.03 0.02 0.02 0.03 0.02 0.04 0.04 0.03 0.02 0.02 0.03 0.08 0.11 0.12 0.12 0.11 0.10 0.08 0.06 0.05 0.04 0.03 0.02 0.01 0.00 0.01 0.01 0.02 0.02 0.02 0.01 0.01 0.01 0.01 0.00 0.00 0.01 0.01 0.03 0.03 0.02 0.02 0.02
0.02 0.01 0.01 0.03 0.02 0.03 0.04 0.05 0.05 0.03 0.03 0.06 0.09 0.11 0.11 0.11 0.10 0.07 0.05 0.05 0.04 0.04 0.03 0.01 0.00 0.01 0.01 0.02 0.02 0.02 0.02 0.01 0.01 0.01 0.01 0.00 0.00 0.00 0.02 0.04 0.03 0.02 0.02
MSLP
1017.37 1016.81 1016.26 1015.73 1015.27 1014.90 1014.62 1014.42 1014.27 1014.15 1014.03 1013.91 1013.79 1013.71 1013.67 1013.72 1013.84 1014.03 1014.26 1014.51 1014.74 1014.94 1015.11 1015.27 1015.42 1015.59 1015.79 1016.00 1016.22 1016.42 1016.58 1016.69 1016.76 1016.81 1016.85 1016.92 1017.02 1017.15 1017.30 1017.45 1017.59 1017.69 1017.75
1017.70 1017.11 1016.51 1015.93 1015.42 1015.00 1014.68 1014.45 1014.28 1014.14 1014.02 1013.90 1013.79 1013.72 1013.69 1013.74 1013.86 1014.05 1014.28 1014.52 1014.76 1014.97 1015.16 1015.35 1015.53 1015.73 1015.95 1016.18 1016.41 1016.62 1016.80 1016.93 1017.03 1017.10 1017.16 1017.25 1017.36 1017.50 1017.65 1017.81 1017.95 1018.06 1018.14
1017.86 1017.24 1016.59 1015.98 1015.43 1014.99 1014.65 1014.40 1014.23 1014.09 1013.97 1013.87 1013.77 1013.70 1013.67 1013.71 1013.82 1013.98 1014.19 1014.42 1014.65 1014.87 1015.09 1015.30 1015.52 1015.76 1016.02 1016.29 1016.55 1016.80 1017.01 1017.18 1017.31 1017.41 1017.51 1017.61 1017.73 1017.86 1018.01 1018.15 1018.29 1018.40 1018.50
1017.79 1017.15 1016.49 1015.85 1015.30 1014.86 1014.52 1014.29 1014.12 1014.00 1013.89 1013.79 1013.69 1013.62 1013.58 1013.60 1013.67 1013.81 1013.99 1014.21 1014.44 1014.67 1014.91 1015.17 1015.43 1015.72 1016.03 1016.35 1016.66 1016.95 1017.20 1017.42 1017.59 1017.74 1017.86 1017.97 1018.09 1018.21 1018.34 1018.46 1018.58 1018.70 1018.80
1017.51 1016.86 1016.20 1015.58 1015.05 1014.64 1014.33 1014.12 1013.98 1013.87 1013.77 1013.66 1013.55 1013.46 1013.40 1013.39 1013.44 1013.55 1013.72 1013.92 1014.16 1014.42 1014.70 1015.00 1015.32 1015.66 1016.02 1016.39 1016.75 1017.08 1017.38 1017.64 1017.86 1018.03 1018.18 1018.30 1018.41 1018.51 1018.61 1018.72 1018.82 1018.93 1019.04
1017.09 1016.43 1015.79 1015.21 1014.73 1014.37 1014.11 1013.94 1013.81 1013.71 1013.60 1013.48 1013.35 1013.24 1013.15 1013.11 1013.14 1013.23 1013.39 1013.61 1013.87 1014.17 1014.50 1014.85 1015.23 1015.62 1016.03 1016.43 1016.83 1017.20 1017.53 1017.83 1018.07 1018.27 1018.43 1018.56 1018.66 1018.75 1018.83 1018.92 1019.02 1019.13 1019.25
1016.62 1015.96 1015.35 1014.83 1014.42 1014.12 1013.91 1013.77 1013.65 1013.54 1013.41 1013.26 1013.11 1012.96 1012.84 1012.79 1012.80 1012.89 1013.07 1013.31 1013.62 1013.97 1014.36 1014.77 1015.20 1015.64 1016.08 1016.51 1016.92 1017.30 1017.65 1017.95 1018.21 1018.43 1018.60 1018.73 1018.84 1018.93 1019.01 1019.10 1019.20 1019.32 1019.46
1016.19 1015.55 1014.98 1014.52 1014.18 1013.94 1013.77 1013.65 1013.53 1013.40 1013.23 1013.04 1012.84 1012.65 1012.51 1012.44 1012.46 1012.56 1012.77 1013.05 1013.41 1013.83 1014.28 1014.76 1015.24 1015.71 1016.17 1016.60 1017.01 1017.38 1017.71 1018.01 1018.27 1018.49 1018.68 1018.83 1018.96 1019.07 1019.18 1019.28 1019.41 1019.55 1019.71
1015.90 1015.27 1014.75 1014.35 1014.07 1013.88 1013.74 1013.62 1013.47 1013.30 1013.08 1012.83 1012.58 1012.36 1012.19 1012.11 1012.13 1012.25 1012.49 1012.83 1013.25 1013.73 1014.25 1014.78 1015.31 1015.81 1016.28 1016.70 1017.08 1017.42 1017.73 1018.01 1018.26 1018.49 1018.70 1018.89 1019.06 1019.21 1019.36 1019.51 1019.68 1019.87 1020.06
1015.77 1015.16 1014.68 1014.33 1014.10 1013.94 1013.81 1013.67 1013.48 1013.25 1012.97 1012.66 1012.35 1012.09 1011.90 1011.80 1011.82 1011.96 1012.23 1012.61 1013.08 1013.63 1014.21 1014.80 1015.37 1015.90 1016.37 1016.78 1017.13 1017.44 1017.72 1017.98 1018.22 1018.46 1018.70 1018.93 1019.15 1019.37 1019.59 1019.81 1020.03 1020.27 1020.50
1015.78 1015.19 1014.75 1014.45 1014.25 1014.10 1013.96 1013.78 1013.54 1013.24 1012.89 1012.52 1012.17 1011.86 1011.63 1011.51 1011.52 1011.67 1011.95 1012.37 1012.88 1013.48 1014.12 1014.76 1015.38 1015.94 1016.42 1016.83 1017.17 1017.45 1017.70 1017.94 1018.18 1018.43 1018.70 1018.98 1019.27 1019.56 1019.86 1020.15 1020.45 1020.74 1021.02
1015.87 1015.31 1014.90 1014.64 1014.45 1014.30 1014.13 1013.90 1013.61 1013.25 1012.84 1012.41 1012.01 1011.66 1011.40 1011.25 1011.24 1011.37 1011.66 1012.09 1012.63 1013.27 1013.95 1014.65 1015.31 1015.91 1016.43 1016.85 1017.19 1017.47 1017.71 1017.94 1018.18 1018.44 1018.74 1019.07 1019.42 1019.79 1020.15 1020.52 1020.88 1021.22 1021.54
1015.97 1015.44 1015.07 1014.82 1014.63 1014.46 1014.26 1013.99 1013.64 1013.23 1012.77 1012.30 1011.85 1011.47 1011.18 1011.00 1010.96 1011.07 1011.34 1011.76 1012.32 1012.99 1013.72 1014.47 1015.19 1015.85 1016.40 1016.86 1017.22 1017.51 1017.76 1017.99 1018.24 1018.52 1018.85 1019.21 1019.61 1020.02 1020.45 1020.87 1021.28 1021.67 1022.02
1016.03 1015.53 1015.17 1014.92 1014.73 1014.53 1014.28 1013.97 1013.58 1013.13 1012.64 1012.14 1011.68 1011.27 1010.95 1010.74 1010.67 1010.75 1011.01 1011.42 1011.99 1012.68 1013.45 1014.26 1015.04 1015.76 1016.38 1016.88 1017.29 1017.61 1017.88 1018.13 1018.39 1018.68 1019.02 1019.40 1019.82 1020.26 1020.71 1021.16 1021.60 1022.02 1022.40
1016.02 1015.54 1015.18 1014.92 1014.69 1014.45 1014.16 1013.81 1013.39 1012.92 1012.42 1011.92 1011.45 1011.03 1010.70 1010.47 1010.38 1010.44 1010.68 1011.09 1011.67 1012.38 1013.19 1014.05 1014.90 1015.68 1016.37 1016.95 1017.41 1017.77 1018.08 1018.35 1018.63 1018.93 1019.27 1019.65 1020.06 1020.49 1020.94 1021.39 1021.84 1022.26 1022.66
1015.97 1015.47 1015.09 1014.78 1014.50 1014.21 1013.88 1013.49 1013.05 1012.58 1012.09 1011.60 1011.14 1010.74 1010.41 1010.18 1010.08 1010.14 1010.37 1010.79 1011.39 1012.13 1012.99 1013.90 1014.81 1015.66 1016.42 1017.06 1017.58 1018.01 1018.36 1018.67 1018.97 1019.27 1019.60 1019.96 1020.34 1020.74 1021.15 1021.58 1022.00 1022.42 1022.82
1015.90 1015.37 1014.94 1014.56 1014.21 1013.85 1013.47 1013.05 1012.60 1012.13 1011.65 1011.19 1010.75 1010.36 1010.05 1009.84 1009.76 1009.83 1010.09 1010.54 1011.16 1011.95 1012.85 1013.81 1014.78 1015.69 1016.51 1017.22 1017.81 1018.30 1018.70 1019.06 1019.38 1019.70 1020.01 1020.34 1020.68 1021.03 1021.39 1021.77 1022.15 1022.54 1022.93
1015.87 1015.28 1014.76 1014.29 1013.85 1013.41 1012.97 1012.52 1012.06 1011.60 1011.14 1010.70 1010.29 1009.93 1009.64 1009.46 1009.40 1009.51 1009.82 1010.31 1010.99 1011.83 1012.77 1013.78 1014.79 1015.75 1016.63 1017.39 1018.05 1018.60 1019.07 1019.48 1019.84 1020.18 1020.50 1020.80 1021.10 1021.39 1021.69 1022.01 1022.34 1022.69 1023.06
1015.92 1015.24 1014.61 1014.03 1013.48 1012.96 1012.47 1011.98 1011.51 1011.05 1010.60 1010.18 1009.79 1009.45 1009.19 1009.04 1009.03 1009.19 1009.55 1010.10 1010.84 1011.73 1012.73 1013.78 1014.82 1015.82 1016.73 1017.54 1018.26 1018.88 1019.42 1019.89 1020.32 1020.69 1021.03 1021.33 1021.59 1021.84 1022.08 1022.33 1022.60 1022.91 1023.25
1016.06 1015.28 1014.53 1013.83 1013.17 1012.57 1012.01 1011.49 1011.00 1010.54 1010.10 1009.68 1009.30 1008.98 1008.73 1008.61 1008.64 1008.86 1009.28 1009.91 1010.71 1011.65 1012.68 1013.76 1014.83 1015.84 1016.78 1017.63 1018.39 1019.08 1019.70 1020.25 1020.75 1021.19 1021.56 1021.87 1022.13 1022.34 1022.53 1022.73 1022.95 1023.20 1023.50
1016.26 1015.38 1014.52 1013.71 1012.95 1012.27 1011.66 1011.11 1010.61 1010.15 1009.70 1009.28 1008.90 1008.57 1008.33 1008.23 1008.30 1008.56 1009.04 1009.72 1010.57 1011.56 1012.62 1013.71 1014.77 1015.79 1016.74 1017.61 1018.41 1019.16 1019.86 1020.50 1021.08 1021.60 1022.03 1022.38 1022.65 1022.85 1023.01 1023.16 1023.34 1023.55 1023.80
1016.50 1015.54 1014.59 1013.68 1012.85 1012.11 1011.46 1010.89 1010.38 1009.91 1009.46 1009.03 1008.63 1008.29 1008.05 1007.95 1008.04 1008.34 1008.86 1009.58 1010.46 1011.47 1012.53 1013.61 1014.66 1015.66 1016.59 1017.47 1018.30 1019.10 1019.87 1020.60 1021.27 1021.87 1022.38 1022.78 1023.07 1023.28 1023.44 1023.56 1023.70 1023.87 1024.09
1016.75 1015.74 1014.73 1013.75 1012.87 1012.09 1011.43 1010.86 1010.35 1009.88 1009.43 1008.99 1008.57 1008.21 1007.96 1007.85 1007.94 1008.25 1008.79 1009.52 1010.41 1011.41 1012.45 1013.50 1014.50 1015.46 1016.36 1017.22 1018.06 1018.90 1019.72 1020.52 1021.27 1021.95 1022.53 1022.99 1023.33 1023.56 1023.72 1023.84 1023.96 1024.10 1024.29
1016.99 1015.97 1014.93 1013.92 1013.02 1012.23 1011.56 1011.00 1010.51 1010.05 1009.61 1009.16 1008.73 1008.36 1008.09 1007.97 1008.05 1008.36 1008.88 1009.60 1010.47 1011.43 1012.42 1013.40 1014.34 1015.22 1016.07 1016.90 1017.73 1018.56 1019.42 1020.26 1021.08 1021.82 1022.46 1022.98 1023.36 1023.63 1023.81 1023.94 1024.06 1024.19 1024.36
1017.22 1016.23 1015.18 1014.18 1013.27 1012.49 1011.85 1011.31 1010.84 1010.40 1009.97 1009.54 1009.11 1008.73 1008.45 1008.32 1008.39 1008.67 1009.17 1009.85 1010.67 1011.56 1012.47 1013.36 1014.21 1015.01 1015.79 1016.55 1017.34 1018.16 1019.01 1019.87 1020.72 1021.50 1022.18 1022.74 1023.17 1023.48 1023.69 1023.85 1023.98 1024.13 1024.30
1017.46 1016.51 1015.50 1014.52 1013.63 1012.87 1012.24 1011.73 1011.29 1010.88 1010.48 1010.06 1009.65 1009.28 1009.01 1008.87 1008.93 1009.18 1009.64 1010.27 1011.01 1011.82 1012.64 1013.43 1014.17 1014.87 1015.55 1016.24 1016.97 1017.74 1018.56 1019.41 1020.25 1021.04 1021.74 1022.33 1022.80 1023.15 1023.40 1023.60 1023.77 1023.95 1024.15
Thickness
5699 5702 5704 5706 5707 5708 5709 5710 5711 5712 5712 5713 5714 5714 5714 5714 5714 5715 5715 5715 5716 5716 5716 5717 5716 5717 5717 5717 5716 5716 5715 5715 5715 5715 5715 5715 5714 5714 5713 5713 5713 5712 5712
5696 5698 5700 5701 5703 5704 5705 5706 5707 5707 5708 5709 5710 5710 5710 5710 5711 5711 5712 5712 5712 5713 5713 5713 5713 5713 5713 5713 5713 5712 5712 5712 5711 5711 5711 5711 5711 5711 5710 5710 5710 5709 5709
5692 5694 5695 5697 5698 5699 5700 5701 5702 5703 5704 5705 5705 5706 5706 5707 5707 5707 5708 5709 5709 5709 5709 5709 5710 5710 5710 5710 5709 5709 5709 5708 5708 5708 5708 5707 5707 5708 5707 5707 5707 5706 5706
5686 5688 5690 5692 5693 5694 5695 5696 5697 5698 5699 5700 5701 5701 5702 5703 5703 5704 5704 5705 5705 5705 5705 5705 5706 5706 5706 5706 5706 5706 5705 5705 5704 5704 5704 5704 5704 5704 5704 5704 5704 5703 5703
5680 5682 5684 5685 5687 5688 5689 5690 5691 5692 5694 5695 5696 5697 5697 5698 5699 5699 5700 5700 5701 5701 5701 5701 5701 5701 5702 5702 5702 5702 5702 5701 5701 5701 5700 5700 5700 5701 5701 5700 5700 5700 5700
5672 5674 5676 5678 5680 5681 5683 5684 5685 5687 5688 5689 5690 5691 5692 5693 5694 5695 5695 5696 5696 5696 5696 5696 5697 5697 5697 5698 5698 5698 5698 5697 5697 5697 5697 5697 5697 5697 5697 5697 5697 5696 5696
5664 5666 5668 5670 5672 5674 5676 5677 5679 5680 5682 5683 5684 5685 5687 5688 5689 5690 5690 5691 5691 5691 5692 5692 5692 5692 5692 5693 5693 5693 5693 5693 5693 5693 5693 5693 5693 5694 5693 5693 5693 5693 5692
5656 5658 5660 5662 5663 5666 5668 5670 5671 5673 5675 5676 5678 5679 5681 5682 5684 5685 5685 5686 5686 5687 5687 5687 5687 5688 5688 5688 5688 5688 5688 5689 5689 5689 5689 5689 5689 5690 5689 5689 5689 5688 5688
5648 5649 5651 5653 5655 5657 5659 5662 5663 5665 5667 5669 5671 5673 5674 5676 5678 5679 5679 5680 5681 5682 5682 5682 5682 5682 5682 5683 5683 5683 5683 5684 5684 5684 5684 5684 5685 5685 5685 5684 5684 5684 5683
5639 5641 5643 5645 5647 5649 5651 5653 5655 5658 5660 5661 5663 5665 5667 5669 5671 5672 5673 5674 5675 5676 5676 5677 5677 5677 5677 5677 5677 5677 5678 5678 5678 5679 5679 5679 5680 5681 5680 5679 5679 5679 5678
5631 5632 5633 5635 5638 5640 5643 5645 5647 5650 5652 5653 5655 5657 5660 5662 5664 5665 5666 5667 5668 5669 5669 5670 5670 5671 5671 5671 5671 5671 5672 5672 5673 5673 5673 5674 5675 5675 5675 5674 5674 5673 5673
5621 5623 5624 5626 5629 5631 5634 5637 5639 5641 5643 5645 5647 5649 5651 5654 5656 5657 5659 5660 5661 5662 5662 5663 5663 5664 5664 5664 5664 5665 5665 5666 5666 5667 5668 5668 5669 5669 5669 5668 5668 5667 5667
5613 5614 5616 5618 5620 5623 5625 5628 5630 5632 5635 5637 5640 5641 5643 5645 5647 5649 5650 5652 5653 5653 5654 5655 5656 5656 5656 5657 5657 5658 5659 5659 5660 5660 5661 5661 5662 5663 5663 5662 5662 5661 5661
5605 5607 5609 5610 5613 5615 5617 5619 5621 5623 5626 5628 5631 5633 5634 5636 5639 5640 5641 5643 5644 5645 5646 5646 5647 5648 5648 5649 5650 5651 5652 5652 5653 5653 5654 5655 5656 5656 5657 5656 5656 5655 5654
5599 5600 5601 5603 5605 5608 5609 5610 5612 5614 5617 5619 5622 5624 5627 5628 5630 5632 5633 5634 5636 5637 5638 5638 5639 5640 5640 5641 5642 5643 5644 5645 5645 5646 5647 5648 5649 5649 5650 5650 5650 5649 5648
5593 5594 5595 5597 5599 5600 5602 5603 5604 5606 5607 5610 5613 5615 5618 5619 5621 5624 5625 5626 5627 5629 5630 5630 5631 5631 5632 5633 5633 5635 5636 5637 5637 5638 5639 5640 5641 5642 5643 5643 5643 5643 5642
5587 5588 5589 5591 5592 5593 5595 5596 5596 5597 5599 5601 5603 5605 5608 5611 5612 5615 5617 5617 5619 5620 5621 5621 5622 5623 5624 5624 5625 5626 5627 5629 5630 5631 5632 5633 5634 5635 5635 5636 5636 5635 5635
5582 5582 5583 5585 5585 5585 5586 5588 5588 5588 5589 5591 5594 5597 5599 5602 5603 5607 5608 5609 5609 5611 5612 5612 5613 5613 5614 5615 5616 5617 5618 5620 5621 5623 5624 5625 5626 5626 5627 5627 5627 5627 5627
5577 5576 5577 5577 5578 5578 5578 5579 5579 5580 5581 5582 5584 5588 5591 5593 5595 5596 5598 5600 5600 5601 5602 5604 5603 5605 5605 5605 5607 5608 5609 5611 5613 5614 5615 5616 5617 5618 5619 5619 5619 5619 5619
5571 5570 5571 5570 5570 5570 5569 5570 5570 5570 5572 5574 5576 5579 5582 5584 5587 5587 5588 5590 5592 5593 5593 5594 5595 5595 5596 5597 5599 5599 5600 5602 5604 5605 5606 5607 5608 5610 5610 5610 5611 5610 5610
5564 5563 5563 5563 5563 5562 5561 5561 5561 5561 5562 5565 5568 5570 5572 5575 5578 5579 5580 5581 5583 5585 5585 5586 5587 5586 5587 5588 5589 5589 5591 5593 5595 5596 5598 5599 5600 5601 5601 5601 5602 5602 5601
5557 5556 5556 5556 5555 5555 5555 5554 5554 5553 5553 5556 5559 5561 5563 5566 5569 5571 5572 5572 5574 5575 5576 5577 5579 5578 5578 5580 5580 5580 5580 5582 5585 5588 5589 5590 5591 5591 5592 5592 5592 5593 5593
5551 5550 5551 5550 5549 5548 5548 5546 5545 5544 5545 5546 5550 5552 5556 5558 5560 5563 5564 5564 5565 5567 5568 5570 5571 5572 5570 5570 5572 5573 5573 5574 5575 5577 5579 5580 5581 5582 5583 5583 5583 5583 5583
5546 5545 5545 5544 5543 5542 5541 5540 5540 5539 5540 5540 5542 5545 5548 5550 5552 5554 5556 5557 5558 5559 5560 5562 5564 5564 5564 5563 5563 5565 5566 5567 5566 5567 5568 5569 5571 5572 5573 5574 5574 5574 5574
5541 5540 5539 5538 5537 5536 5535 5535 5534 5534 5533 5533 5535 5537 5539 5542 5544 5547 5548 5549 5551 5552 5553 5554 5555 5557 5557 5556 5556 5556 5556 5556 5557 5558 5559 5559 5560 5562 5563 5564 5564 5565 5564
5537 5535 5534 5533 5532 5531 5530 5529 5529 5528 5527 5527 5528 5530 5532 5534 5536 5538 5540 5542 5543 5544 5546 5547 5548 5549 5549 5549 5549 5550 5550 5549 5549 5548 5548 5548 5549 5551 5553 5554 5555 5555 5554